Change the Weather History Date:

Sunday, June 9, 2013

  Actual Average Record
Temperature  
Mean Temperature 69 °F 66 °F  
Max Temperature 83 °F 81 °F 103 °F (2014)
Min Temperature 55 °F 51 °F 37 °F (1925)
Degree Days  
Heating Degree Days 0 1  
Month to date heating degree days 17  
Since 1 June heating degree days 17  
Since 1 July heating degree days 3103  
Cooling Degree Days 4 2  
Month to date cooling degree days 18  
Year to date cooling degree days 70  
Since 1 June cooling degree days 18  
Growing Degree Days 18 (Base 50)    
Moisture  
Dew Point 53 °F    
Average Humidity 62    
Maximum Humidity 83    
Minimum Humidity 40    
Precipitation  
Precipitation 0.00 in 0.01 in 0.48 in (1954)
Month to date precipitation 0.00 0.15  
Year to date precipitation 5.27 23.19  
Since 1 July precipitation 27.97 37.16  
Snow  
Snow 0.00 in - - ()
Month to date snowfall 0.0  
Since 1 June snowfall 0.0  
Since 1 July snowfall 0.0  
Snow Depth -    
Sea Level Pressure  
Sea Level Pressure 29.80 in    
Wind  
Wind Speed 7 mph (SSE)    
Max Wind Speed 17 mph    
Max Gust Speed 23 mph    
Visibility 10 miles    
Events      
T = Trace of Precipitation, MM = Missing Value Source: NWS Daily Summary

Daily Weather History Graph

Daily Weather History Graph

Search for Another Location

Airport or City:

Trip Planner

Search our weather history database for the weather conditions in past years. The results will help you decide how hot, cold, wet, or windy it might be!

Date:

Astronomy

Jun. 09, 2013 Rise Set
Actual Time 5:46 AM PDT 8:38 PM PDT
Civil Twilight 5:14 AM PDT 9:10 PM PDT
Nautical Twilight 4:34 AM PDT 9:50 PM PDT
Astronomical Twilight 3:48 AM PDT 10:36 PM PDT
Moon 6:47 AM PDT (6/9) 9:29 PM PDT (6/9)
Length of Visible Light 15h 55m
Length of Day
14h 51m
New Moon, 1% of the Moon is Illuminated
Jun 9
New Moon
Jun 16
First Quarter
Jun 23
Full
Jun 29
Last Quarter
Jul 8
New

Hourly Weather History & Observations

Time (PDT) Temp. Heat Index Dew Point Humidity Pressure Visibility Wind Dir Wind Speed Gust Speed Precip Events Conditions
12:56 AM 62.1 °F - 52.0 °F 70% 29.78 in 10.0 mi SSE 8.1 mph - N/A   Clear
1:56 AM 59.0 °F - 51.1 °F 75% 29.79 in 10.0 mi South 9.2 mph - N/A   Clear
2:56 AM 57.9 °F - 51.1 °F 78% 29.80 in 10.0 mi SSE 8.1 mph - N/A   Clear
3:56 AM 57.0 °F - 50.0 °F 77% 29.81 in 10.0 mi South 4.6 mph - N/A   Clear
4:56 AM 55.9 °F - 50.0 °F 80% 29.81 in 10.0 mi SSE 3.5 mph - N/A   Clear
5:56 AM 55.9 °F - 50.0 °F 80% 29.83 in 10.0 mi South 4.6 mph - N/A   Clear
6:56 AM 57.0 °F - 51.1 °F 81% 29.84 in 10.0 mi South 4.6 mph - N/A   Clear
7:56 AM 60.1 °F - 51.1 °F 72% 29.84 in 10.0 mi Variable 3.5 mph - N/A   Clear
8:56 AM 63.0 °F - 52.0 °F 67% 29.83 in 10.0 mi ESE 5.8 mph - N/A   Clear
9:56 AM 68.0 °F - 52.0 °F 56% 29.82 in 10.0 mi SE 5.8 mph - N/A   Clear
10:56 AM 73.0 °F - 54.0 °F 51% 29.81 in 10.0 mi SE 5.8 mph - N/A   Clear
11:56 AM 75.0 °F - 55.0 °F 50% 29.81 in 10.0 mi SSE 8.1 mph - N/A   Clear
12:56 PM 77.0 °F - 55.9 °F 48% 29.79 in 10.0 mi Variable 3.5 mph - N/A   Clear
1:56 PM 82.0 °F 81.6 °F 55.9 °F 41% 29.78 in 10.0 mi SE 9.2 mph - N/A   Clear
2:56 PM 82.0 °F 81.6 °F 55.9 °F 41% 29.76 in 10.0 mi SE 13.8 mph 19.6 mph N/A   Clear
3:56 PM 81.0 °F 80.8 °F 55.9 °F 42% 29.76 in 10.0 mi SSE 10.4 mph 19.6 mph N/A   Clear
4:56 PM 80.1 °F 80.2 °F 55.9 °F 43% 29.76 in 10.0 mi SE 13.8 mph 21.9 mph N/A   Clear
5:56 PM 78.1 °F - 55.0 °F 45% 29.77 in 10.0 mi SSE 12.7 mph - N/A   Clear
6:56 PM 75.9 °F - 55.0 °F 48% 29.77 in 10.0 mi SSE 8.1 mph - N/A   Clear
7:56 PM 71.1 °F - 54.0 °F 55% 29.79 in 10.0 mi SSE 8.1 mph - N/A   Clear
8:56 PM 64.9 °F - 53.1 °F 65% 29.81 in 10.0 mi SSE 9.2 mph 18.4 mph N/A   Clear
9:56 PM 63.0 °F - 53.1 °F 70% 29.83 in 10.0 mi Variable 5.8 mph - N/A   Clear
10:56 PM 61.0 °F - 52.0 °F 72% 29.83 in 10.0 mi East 4.6 mph - N/A   Clear
11:56 PM 59.0 °F - 52.0 °F 78% 29.83 in 10.0 mi South 4.6 mph - N/A   Clear